Location: Grange Rosano
(44.4500°N, 6.9667°E)
Time: 08:51:47
(UTC+00:00)

Cosmos 1954 Rocket - Pass Details

Date: 26 May 2022
Orbit: 751 x 781 km, 74.0° (Epoch: 01 July)

Event Time Altitude Azimuth Distance (km) Brightness Sun altitude
Rises 03:09:00 0° 341° (NNW) 3,276 7.5 -7.5°
Reaches altitude 10° 03:11:25 10° 343° (NNW) 2,345 6.8 -7.1°
Maximum altitude 03:16:44 69° 68° (ENE) 835 4.5 -6.4°
Drops below altitude 10° 03:22:01 10° 151° (SSE) 2,327 6.4 -5.7°
Sets 03:24:24 0° 154° (SSE) 3,248 7.1 -5.3°
